Regional Weather Roundup
Issued by NWS

Home | Current Version | Previous Version | Graphics & Text | Print | Product List | Glossary On
Versions: 1 2 3 4 5 6 7 8 9 10 11 12 13 14 15 16 17 18 19 20 21 22 23 24 25 26 27 28 29 30 31 32 33 34 35 36 37 38 39 40 41 42 43 44 45 46 47 48 49 50
000
ASUS43 KDMX 281304
RWRIA

WEATHER ROUNDUP FOR IOWA
NATIONAL WEATHER SERVICE DES MOINES IA
  ISSUED BY NWS QUAD CITIES IA IL
700 AM CST SAT FEB 28 2015

NOTE: "FAIR" INDICATES FEW OR NO CLOUDS BELOW 12,000 FEET WITH NO
SIGNIFICANT WEATHER AND/OR OBSTRUCTIONS TO VISIBILITY.

* - THESE STATIONS ARE NOT NWS STATIONS...THUS NOT UNDER NWS
QUALITY CONTROL.  THEY ALSO DO NOT REPORT WEATHER SUCH
AS PRECIPITATION OR FOG.

IAZ001>003-012>014-020>022-031>034-043>046-281400-
   NORTHWEST IOWA

CITY           SKY/WX    TMP DP  RH WIND       PRES   REMARKS
CARROLL *      CLOUDY    -6  -9  84 SE3       30.50F
CHEROKEE *     MOSUNNY   -5  -8  88 SE5       30.46F WCI -16
DENNISON *     PTCLDY     1  -4  78 CALM      30.46F
LE MARS *      PTCLDY    -6  -9  84 CALM      30.45F
ORANGE CITY *  PTCLDY     1  -4  78 SE3       30.41F
SHELDON *      PTCLDY    -4  -8  84 S9        30.41F WCI -20
SIOUX CITY     PTCLDY     3  -3  76 SE8       30.45F WCI -10
SPENCER        PTCLDY    -3  -9  75 S10       30.45F WCI -20
STORM LAKE *   MOCLDY    -2  -8  78 S12       30.45F WCI -20
$$

IAZ055>058-069>071-079>083-090>094-281400-
   SOUTHWEST IOWA

CITY           SKY/WX    TMP DP  RH WIND       PRES   REMARKS
ATLANTIC *     MOCLDY     0  -6  78 CALM      30.51R
AUDUBON *      PTCLDY    -8 -11  84 CALM      30.49S
CLARINDA *     PTCLDY     1  -2  85 CALM      30.54S
COUNCIL BLFS * PTCLDY     7   3  85 SE9       30.47R WCI  -7
CRESTON *      CLOUDY     1  -4  78 E6        30.51S WCI -10
HARLAN *       PTCLDY     0  -2  92 CALM      30.53S
LAMONI         CLOUDY     6   1  80 SE5       30.52F WCI  -3
SHENANDOAH *   CLEAR      7   1  78 SE5       30.53R WCI  -2
$$

IAZ047>049-059>061-072>074-084-281400-
   CENTRAL IOWA

CITY           SKY/WX    TMP DP  RH WIND       PRES   REMARKS
AMES           PTCLDY    -8 -14  74 CALM      30.57S
ANKENY *       MOCLDY    -8 -13  77 CALM      30.58S
BOONE *        PTCLDY    -6  -9  84 SE5       30.52S WCI -17
CHARITON *     CLOUDY     3  -4  72 SE7       30.55F WCI  -9
DES MOINES     MOCLDY     3  -5  69 SE7       30.56S WCI  -9
GRINNELL *     PTSUNNY   -4  -9  81 SE6       30.58S WCI -17
KNOXVILLE *    CLOUDY     0  -9  65 SE7       30.56S WCI -13
MARSHALLTOWN   PTCLDY   -12 -15  86 SE8       30.57R WCI -29
NEWTON *       PTCLDY    -6 -13  71 SE5       30.58S WCI -17
PELLA *        PTCLDY    -4  -7  90 SE6       30.59F WCI -17
PERRY *          N/A     -5  -8  86 SE5       30.54S WCI -16
$$

IAZ004>006-015-016-023>025-035-036-281400-
   NORTH CENTRAL IOWA

CITY           SKY/WX    TMP DP  RH WIND       PRES   REMARKS
ALGONA *       MOCLDY    -4  -9  77 S6        30.51S WCI -16
CLARION *      PTCLDY    -6 -11  77 SE12      30.53S WCI -24
ESTHERVILLE    MOCLDY   -11 -15  82 S10       30.45F WCI -30
FORT DODGE *   MOCLDY   -11 -20  64 SE3       30.52S
MASON CITY     PTCLDY   -19 -23  81 SE3       30.54F
FOREST CITY *  FAIR     -15 -24  64 CALM      30.52F
WEBSTER CITY * FAIR     -11 -15  84 SE8       30.52S WCI -28
IOWA FALLS *   FAIR     -13 -19  77 SE3       30.56S
$$

IAZ007>011-017>019-026>030-037>042-050>054-066-281400-
   NORTHEAST IOWA

CITY           SKY/WX    TMP DP  RH WIND       PRES   REMARKS
CEDAR RAPIDS   PTCLDY    -9 -14  78 SE5       30.61S WCI -20
CHARLES CITY * MOCLDY    -9 -15  77 SE6       30.57S WCI -23
CLINTON *      PTCLDY   -17 -20  83 E5        30.67S WCI -29
DECORAH *      MOCLDY    -6 -11  77 S5        30.57S WCI -17
DUBUQUE        PTCLDY    -7 -12  79 CALM      30.61S
MONTICELLO *   MOCLDY   -26 -35  62 CALM      30.64S
OELWEIN *      MOCLDY    -9 -17  70 SE8       30.59S WCI -26
WATERLOO       MOCLDY   -21 -24  86 CALM      30.60S
$$

IAZ064-065-067-068-078-281400-
   EAST CENTRAL IOWA

CITY           SKY/WX    TMP DP  RH WIND       PRES   REMARKS
DAVENPORT      MOCLDY    -5 -11  75 SE6       30.66S WCI -18
IOWA CITY      PTCLDY   -10 -16  74 CALM      30.66S
MT. PLEASANT * PTCLDY    -4  -9  78 E6        30.63S WCI -16
MUSCATINE *    PTCLDY   -13 -18  77 CALM      30.68F
QUAD CITIES    MOCLDY   -13 -19  75 E3        30.67F
$$

IAZ062-063-075>077-085>089-095>099-281400-
   SOUTHEAST IOWA

CITY           SKY/WX    TMP DP  RH WIND       PRES   REMARKS
BURLINGTON     CLOUDY     4  -2  76 E6        30.64S WCI  -7
FAIRFIELD *    PTCLDY    -2 -11  65 SE7       30.62S WCI -16
FORT MADISON * CLOUDY     7   0  72 SE7       30.64S WCI  -5
KEOKUK *       CLOUDY     9   1  72 SE7       30.63S WCI  -3
OSKALOOSA *    FAIR      -3  -8  79 SE7       30.60S WCI -17
CENTERVILLE *  CLOUDY     9   1  72 SE6       30.57F WCI  -1
OTTUMWA        PTCLDY    -4  -9  79 SE6       30.59F WCI -16
WASHINGTON *   PTCLDY    -9 -13  84 E6        30.63F WCI -23
$$

ABBREVIATIONS USED IN REMARKS
   TC - TEMPERATURES IN CELSIUS
  WCI - WIND CHILL INDEX
   HX - HEAT INDEX
  VSB - VISIBILITY
$$


USA.gov is the U.S. government's official web portal to all federal, state and local government web resources and services.